Fort Polk, LA

8:21 PM CDT on March 23, 2017 (GMT -0500)
Polk Army Air Field

Weather History for KPOE - February, 2014

Change the Weather History Date:

Tuesday, February 18, 2014

  Actual Average Record
Temperature  
Mean Temperature 68 °F -  
Max Temperature 75 °F 63 °F 80 °F (2000)
Min Temperature 62 °F 43 °F 29 °F (2015)
Cooling Degree Days 4    
Growing Degree Days 18 (Base 50)    
Moisture  
Dew Point 63 °F    
Average Humidity 92    
Maximum Humidity 100    
Minimum Humidity 60    
Precipitation  
Precipitation 0.01 in - - ()
Sea Level Pressure  
Sea Level Pressure 30.06 in    
Wind  
Wind Speed 5 mph (SSW)    
Max Wind Speed 13 mph    
Max Gust Speed 23 mph    
Visibility 6 miles    
Events Fog , Rain    
Averages and records for this station are not official NWS values.
T = Trace of Precipitation, MM = Missing Value Source: NWS Daily Summary

Daily Weather History Graph

Daily Weather History Graph

Search for Another Location

Airport or City:

Trip Planner

Search our weather history database for the weather conditions in past years. The results will help you decide how hot, cold, wet, or windy it might be!

Date:

Astronomy

Feb. 18, 2014 Rise Set
Actual Time 6:50 AM CST 6:02 PM CST
Civil Twilight 6:26 AM CST 6:27 PM CST
Nautical Twilight 5:58 AM CST 6:55 PM CST
Astronomical Twilight 5:29 AM CST 7:23 PM CST
Moon 9:38 PM CST (2/18) 8:40 AM CST (2/18)
Length of Visible Light 12h 01m
Length of Day
11h 11m
Waning Gibbous, 87% of the Moon is Illuminated
Feb 18
Waning Gibbous
Feb 22
Last Quarter
Mar 1
New
Mar 8
First Quarter
Mar 16
Full

Hourly Weather History & Observations

Time (CST) Temp. Dew Point Humidity Pressure Visibility Wind Dir Wind Speed Gust Speed Precip Events Conditions
12:22 AM 64.4 °F 64.4 °F 100% 30.10 in 0.2 mi Calm Calm - N/A Fog Fog
12:55 AM 64.0 °F 64.0 °F 100% 30.11 in 0.5 mi SSW 4.6 mph - N/A Fog Fog
1:35 AM 64.4 °F 64.4 °F 100% 30.10 in 0.8 mi SSW 6.9 mph - N/A   Mist
1:54 AM 64.0 °F 64.0 °F 100% 30.10 in 1.2 mi SW 4.6 mph - N/A   Overcast
2:05 AM 64.4 °F 64.4 °F 100% 30.09 in 0.8 mi Calm Calm - N/A   Mist
2:15 AM 64.4 °F 64.4 °F 100% 30.09 in 0.5 mi SW 4.6 mph - N/A Fog Fog
2:28 AM 64.4 °F 64.4 °F 100% 30.08 in 0.8 mi SW 3.5 mph - N/A   Mist
2:46 AM 64.4 °F 64.4 °F 100% 30.07 in 0.5 mi SW 3.5 mph - N/A Fog Fog
2:55 AM 64.0 °F 64.0 °F 100% 30.08 in 0.5 mi WSW 3.5 mph - N/A Fog Fog
3:48 AM 64.4 °F 64.4 °F 100% 30.06 in 1.0 mi South 3.5 mph - N/A   Mist
3:52 AM 64.4 °F 64.4 °F 100% 30.06 in 1.5 mi South 3.5 mph - N/A   Overcast
3:55 AM 64.0 °F 64.0 °F 100% 30.07 in 2.0 mi Calm Calm - N/A   Overcast
4:16 AM 64.4 °F 64.4 °F 100% 30.06 in 4.0 mi South 3.5 mph - N/A   Overcast
4:43 AM 64.4 °F 64.4 °F 100% 30.06 in 2.5 mi Calm Calm - N/A   Overcast
4:55 AM 64.0 °F 64.0 °F 100% 30.06 in 4.0 mi SSW 5.8 mph - N/A   Overcast
5:12 AM 64.4 °F 64.4 °F 100% 30.06 in 2.5 mi South 5.8 mph - N/A   Overcast
5:26 AM 64.4 °F 62.6 °F 94% 30.07 in 3.0 mi South 6.9 mph - N/A   Overcast
5:55 AM 63.0 °F 63.0 °F 100% 30.08 in 3.0 mi SSW 5.8 mph - N/A   Overcast
6:06 AM 62.6 °F 62.6 °F 100% 30.07 in 2.5 mi South 6.9 mph - 0.01 in   Overcast
6:35 AM 62.6 °F 62.6 °F 100% 30.08 in 3.0 mi South 5.8 mph - 0.01 in   Overcast
6:55 AM 63.0 °F 63.0 °F 100% 30.09 in 4.0 mi South 5.8 mph - 0.01 in   Overcast
7:04 AM 62.6 °F 62.6 °F 100% 30.08 in 1.8 mi South 6.9 mph - N/A   Overcast
7:07 AM 62.6 °F 62.6 °F 100% 30.08 in 1.0 mi South 4.6 mph - N/A   Overcast
7:15 AM 62.6 °F 62.6 °F 100% 30.08 in 0.8 mi South 8.1 mph - N/A   Overcast
7:19 AM 62.6 °F 62.6 °F 100% 30.08 in 1.2 mi South 6.9 mph - N/A   Overcast
7:24 AM 62.6 °F 62.6 °F 100% 30.08 in 2.0 mi South 6.9 mph - N/A   Overcast
7:37 AM 64.4 °F 62.6 °F 94% 30.08 in 4.0 mi SSW 8.1 mph - N/A   Overcast
7:55 AM 64.0 °F 63.0 °F 96% 30.10 in 4.0 mi SSW 8.1 mph - 0.00 in Rain Light Rain
8:55 AM 64.9 °F 64.0 °F 97% 30.12 in 4.0 mi South 5.8 mph - 0.00 in   Overcast
9:39 AM 64.4 °F 62.6 °F 94% 30.11 in 6.0 mi SSW 8.1 mph - N/A   Overcast
9:50 AM 64.4 °F 62.6 °F 94% 30.11 in 7.0 mi SSW 4.6 mph - N/A   Overcast
9:55 AM 66.0 °F 63.0 °F 90% 30.12 in 8.0 mi South 9.2 mph - N/A   Overcast
10:51 AM 68.0 °F 62.6 °F 83% 30.11 in 10.0 mi SSW 8.1 mph - N/A   Overcast
10:55 AM 66.9 °F 62.1 °F 84% 30.12 in 10.0 mi SSW 9.2 mph - N/A   Overcast
11:17 AM 69.8 °F 60.8 °F 73% 30.09 in 10.0 mi SSW 12.7 mph 21.9 mph N/A   Mostly Cloudy
11:55 AM 69.1 °F 61.0 °F 75% 30.09 in 10.0 mi SSW 6.9 mph - N/A   Overcast
12:55 PM 70.0 °F 62.1 °F 76% 30.06 in 10.0 mi South 8.1 mph - N/A   Overcast
1:55 PM 70.0 °F 63.0 °F 78% 30.04 in 10.0 mi South 10.4 mph - N/A   Overcast
2:48 PM 73.4 °F 60.8 °F 65% 30.01 in 10.0 mi SSW 8.1 mph - N/A   Mostly Cloudy
2:55 PM 75.0 °F 61.0 °F 62% 30.01 in 10.0 mi SW 10.4 mph 16.1 mph N/A   Mostly Cloudy
3:55 PM 75.0 °F 60.1 °F 60% 29.99 in 10.0 mi South 11.5 mph - N/A   Mostly Cloudy
4:55 PM 73.9 °F 60.1 °F 62% 29.99 in 10.0 mi South 12.7 mph 23.0 mph N/A   Mostly Cloudy
5:55 PM 71.1 °F 61.0 °F 70% 29.99 in 10.0 mi South 11.5 mph 19.6 mph N/A   Clear
6:55 PM 66.9 °F 62.1 °F 84% 29.99 in 10.0 mi South 11.5 mph 18.4 mph N/A   Clear
7:55 PM 64.9 °F 61.0 °F 87% 30.00 in 10.0 mi South 8.1 mph - N/A   Clear
8:55 PM 64.0 °F 61.0 °F 90% 30.00 in 10.0 mi South 9.2 mph - N/A   Clear
9:20 PM 62.6 °F 60.8 °F 94% 29.99 in 10.0 mi South 10.4 mph - N/A   Mostly Cloudy
9:32 PM 62.6 °F 60.8 °F 94% 30.00 in 10.0 mi South 6.9 mph - N/A   Scattered Clouds
9:55 PM 63.0 °F 61.0 °F 93% 30.00 in 10.0 mi South 9.2 mph - N/A   Clear
10:06 PM 62.6 °F 60.8 °F 94% 30.00 in 10.0 mi South 9.2 mph - N/A   Scattered Clouds
10:17 PM 62.6 °F 60.8 °F 94% 29.99 in 10.0 mi South 9.2 mph - N/A   Mostly Cloudy
10:31 PM 62.6 °F 60.8 °F 94% 30.00 in 10.0 mi South 10.4 mph 18.4 mph N/A   Overcast
10:55 PM 63.0 °F 61.0 °F 93% 30.01 in 10.0 mi South 11.5 mph - N/A   Overcast
11:03 PM 62.6 °F 60.8 °F 94% 30.01 in 9.0 mi South 9.2 mph - N/A   Overcast
11:55 PM 63.0 °F 61.0 °F 93% 30.01 in 10.0 mi South 9.2 mph - N/A   Overcast